Content
SEND FEEDBACK

United States of America Flag

MALDEN, MISSOURI


Home > North America > United States > Missouri
Elevation: 89 meters     Latitude: 36 36N     Longitude: 089 59W

WEATHER
 
SELECT A DAY
Number of Records: 226,588;   Date Range: 1/1/95 - 3/22/16
 
SHARE

PRINT THIS DATA

[ ← Previous Day ]
WEATHER ALMANAC - 8 DECEMBER, 2013
[ Next Day → ]
[ °F ]   °C
Weather ElementAverageHighLow
Temperature-3 °C-1.7 °C (4:53 pm)-5.6 °C (1:53 am)
Dewpoint-6.5 °C-4.4 °C (4:53 pm)-10.6 °C (1:53 am)
Humidity77.2 %82 % (4:53 pm)65 % (2:53 am)
Barometer1021.7 hPa1028.4 hPa (1:53 am)1017.9 hPa (2:05 pm)
Wind Speed10 km/h18.5 km/h (2:53 am)
Weather ElementAverage
Visibility6.6 km
Wind DirectionESE (117.2 °)

Weather ElementTotal
Precipitation1.02 mm
Heating Degree Days22 (Base 18.3)
Averaged from 47 records on 8 December, 2013
WEATHER CONDITIONS BREAKOUT
WIND DIRECTION BREAKOUT
WEATHER BY HOUR - 8 DECEMBER, 2013
[ °F ]   °C
Local TimeTemperatureDewpointHumidityBarometerVisibilityWind DirectionWind SpeedGust SpeedPrecipitationEventsConditions
1:53 AM-5.6 °C-10.6 °C68 %1028.4 hPa14.5 kmNNE (30°)14.8 km/h0 mmSnowLight Snow
2:53 AM-5 °C-10.6 °C65 %1026.8 hPa14.5 kmNE (40°)18.5 km/h0 mmSnowLight Snow
3:53 AM-5 °C-10 °C68 %1025.7 hPa14.5 kmNNE (20°)18.5 km/h0 mmSnowLight Snow
4:11 AM-4.4 °C-10 °C65 %1024.7 hPa14.5 kmNNE (30°)14.8 km/h0 mmSnowLight Snow
4:53 AM-4.4 °C-9.4 °C69 %1025.4 hPa12.9 kmNNE (30°)14.8 km/h0 mmSnowLight Snow
5:06 AM-4.4 °C-9.4 °C69 %1024.4 hPa14.5 kmNE (40°)14.8 km/h0 mmSnowLight Snow
5:53 AM-4.4 °C-9.4 °C69 %1025.1 hPa14.5 kmNE (50°)11.1 km/h0 mmSnowLight Snow
6:34 AM-4.4 °C-8.9 °C71 %1024 hPa12.9 kmNNE (30°)9.3 km/h0 mmSnowLight Snow
6:53 AM-4.4 °C-8.9 °C71 %1025.1 hPa6.4 kmNE (40°)11.1 km/h0 mmSnowLight Snow
7:13 AM-4.4 °C-8.3 °C75 %1023.7 hPa3.2 kmNE (50°)11.1 km/h0.25 mmSnowLight Snow
7:21 AM-4.4 °C-7.8 °C77 %1023.7 hPa2.9 kmNE (40°)11.1 km/h0.25 mmSnowLight Snow
7:33 AM-4.4 °C-7.8 °C77 %1023.4 hPa3.2 kmNE (40°)9.3 km/h0.25 mmSnowLight Snow
7:53 AM-4.4 °C-7.8 °C77 %1024.7 hPa4 kmNNE (20°)9.3 km/h0.25 mmSnowLight Snow
7:59 AM-4.4 °C-7.8 °C77 %1023.7 hPa4.8 kmNNE (20°)9.3 km/h0 mmSnowLight Snow
8:53 AM-4.4 °C-7.8 °C77 %1024.4 hPa4 kmNE (40°)11.1 km/h0 mmSnowLight Snow
9:43 AM-3.9 °C-7.2 °C78 %1023 hPa2.9 kmNE (40°)9.3 km/h0 mmSnowLight Snow
9:53 AM-3.9 °C-7.2 °C78 %1024 hPa2.9 kmNE (40°)11.1 km/h0 mmSnowLight Snow
10:38 AM-3.3 °C-6.7 °C78 %1022.4 hPa2.4 kmNE (50°)9.3 km/h0 mmSnowLight Snow
10:53 AM-3.3 °C-6.7 °C78 %1022.7 hPa2.4 kmNE (40°)9.3 km/h0 mmSnowLight Snow
11:13 AM-3.3 °C-6.7 °C78 %1021.7 hPa3.2 kmNE (40°)7.4 km/h0 mmSnowLight Snow
11:23 AM-3.3 °C-6.7 °C78 %1021.3 hPa4 kmNNE (30°)9.3 km/h0 mmSnowLight Snow
11:53 AM-2.8 °C-6.1 °C78 %1021.3 hPa4 kmNE (40°)7.4 km/h0 mmSnowLight Snow
12:10 PM-2.8 °C-6.1 °C78 %1020.3 hPa4.8 kmNNE (30°)7.4 km/h0 mmSnowLight Snow
12:53 PM-2.2 °C-5.6 °C78 %1021 hPa4.8 kmCalm0 mmHaze
1:04 PM-2.8 °C-5.6 °C81 %1020 hPa2.9 kmCalmHaze
1:53 PM-2.2 °C-5 °C81 %1018.6 hPa2.4 kmEast (100°)7.4 km/h0 mmSnowLight Snow
2:05 PM-2.2 °C-5 °C81 %1017.9 hPa2.9 kmVariable7.4 km/h0 mmSnowLight Snow
2:53 PM-2.2 °C-5 °C81 %1019 hPa4.8 kmSouth (190°)7.4 km/h0 mmSnowLight Snow
3:17 PM-2.2 °C-5 °C81 %1018.3 hPa4 kmSSW (200°)9.3 km/h0 mmSnowLight Snow
3:43 PM-2.2 °C-5 °C81 %1018.3 hPa4 kmSouth (190°)7.4 km/h0 mmSnowLight Snow
3:53 PM-2.2 °C-5 °C81 %1019.3 hPa3.2 kmSSW (210°)11.1 km/h0 mmSnowLight Snow
4:04 PM-2.2 °C-5 °C81 %1018.3 hPa2.9 kmSSW (210°)11.1 km/h0 mmSnowLight Snow
4:53 PM-1.7 °C-4.4 °C82 %1019.6 hPa1.6 kmSSW (210°)11.1 km/h0 mmSnowLight Snow
5:09 PM-1.7 °C-4.4 °C82 %1018.6 hPa2.4 kmSSW (210°)11.1 km/h0 mmSnowLight Snow
5:29 PM-1.7 °C-4.4 °C82 %1019 hPa3.2 kmSW (230°)9.3 km/h0 mmSnowLight Snow
5:36 PM-1.7 °C-4.4 °C82 %1019 hPa3.2 kmSW (230°)11.1 km/h0 mmSnowLight Snow
5:53 PM-1.7 °C-4.4 °C82 %1019.6 hPa3.2 kmWSW (240°)9.3 km/h0 mmSnowLight Snow
6:39 PM-1.7 °C-4.4 °C82 %1019 hPa4.8 kmWest (260°)11.1 km/h0 mmSnowLight Snow
6:53 PM-1.7 °C-4.4 °C82 %1020 hPa6.4 kmWSW (240°)9.3 km/h0 mmSnowLight Snow
7:06 PM-1.7 °C-4.4 °C82 %1019.3 hPa8 kmWSW (240°)11.1 km/h0 mmSnowLight Snow
7:53 PM-1.7 °C-5 °C78 %1020.3 hPa9.7 kmSW (230°)11.1 km/h0 mmSnowLight Snow
8:53 PM-1.7 °C-5 °C78 %1021 hPa11.3 kmWSW (250°)13 km/h0 mmSnowLight Snow
9:21 PM-1.7 °C-5 °C78 %1020 hPa11.3 kmWSW (240°)7.4 km/h0 mmSnowLight Snow
9:53 PM-1.7 °C-5 °C78 %1021.3 hPa11.3 kmWSW (250°)9.3 km/h0 mmSnowLight Snow
10:45 PM-1.7 °C-5 °C78 %1020.7 hPa11.3 kmWest (270°)7.4 km/h0 mmSnowLight Snow
10:53 PM-1.7 °C-5 °C78 %1021.3 hPa11.3 kmWest (280°)7.4 km/h0 mmSnowLight Snow
11:53 PM-1.7 °C-5 °C78 %1021.7 hPa11.3 kmSSW (200°)5.6 km/h0 mmSnowLight Snow
Hourly data recorded from KPOF, located 0 kilometers away from Malden, Missouri




STORIES FROM OUR PARTNERS